Regional Weather Roundup
Issued by NWS

Home | Current Version | Previous Version | Graphics & Text | Print | Product List | Glossary On
Versions: 1 2 3 4 5 6 7 8 9 10 11 12 13 14 15 16 17 18 19 20 21 22 23 24 25 26 27 28 29 30 31 32 33 34 35 36 37 38 39 40 41 42 43 44 45 46 47 48 49 50
000
ASUS43 KDTX 272110
RWRMI
MICHIGAN HOURLY REGIONAL WEATHER ROUNDUP
NATIONAL WEATHER SERVICE DETROIT/PONTIAC MI
500 PM EDT THU AUG 27 2015

NOTE: "FAIR" INDICATES FEW OR NO CLOUDS BELOW 12,000 FEET WITH NO
SIGNIFICANT WEATHER AND/OR OBSTRUCTION TO VISIBILITY.

MIZ047>049-052>055-059>063-066>070-074>076-081>083-272200-
SOUTHEAST LOWER MICHIGAN

CITY           SKY/WX    TMP DP  RH WIND       PRES   REMARKS
ADRIAN         CLOUDY    67  53  61 CALM      30.19R
ALMA           CLOUDY    69  54  58 CALM      30.17S
ANN ARBOR      CLOUDY    66  54  65 W7        30.18S
BAD AXE        CLOUDY    63  52  67 CALM      30.18S
DETROIT CITY   CLOUDY    66  53  63 CALM      30.18S
DETROIT        CLOUDY    68  51  54 CALM      30.18S
FLINT          CLOUDY    67  54  63 W7        30.18F
GROSSE ILE     CLOUDY    66  54  63 CALM      30.17R
HILLSDALE      CLOUDY    67  56  67 NE3       30.19S
HOWELL         CLOUDY    64  52  66 CALM      30.19S

CITY           SKY/WX    TMP DP  RH WIND       PRES   REMARKS
JACKSON        CLOUDY    64  53  67 CALM      30.19S
LAMBERTVILLE   CLOUDY    69  55  60 N3        30.18S
LANSING        CLOUDY    65  53  65 SE6       30.19S
LAPEER         NOT AVBL
MASON          CLOUDY    63  53  70 CALM      30.19S
MONROE         CLOUDY    68  53  58 NW3       30.17R
MT. CLEMENS    CLOUDY    65  54  68 CALM      30.16R
PONTIAC          N/A     63  53  70 NW6       30.18S
PORT HOPE        N/A     65  52  62 CALM      30.17R
PORT HURON     CLOUDY    64  54  68 NW3       30.18R
TRI CITIES     CLOUDY    69  54  58 S5        30.17F
YPSILANTI      CLOUDY    71  55  56 N3        30.18S
$$
MIZ043>046-050>051-056>058-064>065-071>073-077>080-272200-
SOUTHWEST LOWER MICHIGAN

CITY           SKY/WX    TMP DP  RH WIND       PRES   REMARKS
BATTLE CREEK   CLOUDY    68  54  60 SE6       30.19S
BENTON HARBOR    N/A     69  57  65 NW3       30.16F
BIG RAPIDS     PTSUNNY   72  56  58 SW10      30.14S
COLDWATER      CLOUDY    67  55  66 CALM      30.18S
HOLLAND        CLOUDY    70  58  65 VRB7      30.18S
GRAND RAPIDS   PTSUNNY   69  55  60 S5        30.17S
KALAMAZOO      CLOUDY    70  53  54 CALM      30.17F
MARSHALL       CLOUDY    65  52  62 CALM      30.18S
MUSKEGON       PTSUNNY   69  56  62 W8        30.17S
$$
MIZ016>042-272200-
NORTHERN LOWER MICHIGAN

CITY           SKY/WX    TMP DP  RH WIND       PRES   REMARKS
ALPENA         CLOUDY    64  54  69 E5        30.15F
BEAVER ISLAND    N/A     67  56  67 SW8       30.13S
BELLAIRE         N/A     72  56  57 CALM      30.12F
CADILLAC       PTSUNNY   73  57  55 W9        30.13F
CHARLEVOIX       N/A     69  59  71 SW7       30.15F
FRANKFORT        N/A     67  58  71 SW10G16   30.13F
GAYLORD        PTSUNNY   70  52  52 W3        30.14S
GRAYLING       CLOUDY    69  55  62 S6        30.15S
HARBOR SPRINGS   N/A     68  57  68 SW7       30.13F
HOUGHTON LAKE  PTSUNNY   70  54  56 SW6       30.15F
MANISTEE         N/A     70  55  60 W7        30.14F
OSCODA         CLOUDY    62  52  69 E7        30.16S
PELLSTON       CLOUDY    71  53  52 SW8       30.13S
TRAVERSE CITY    N/A     74  56  53 NE5       30.10F
$$
MIZ007>008-015-272200-
EASTERN UPPER MICHIGAN

CITY           SKY/WX    TMP DP  RH WIND       PRES   REMARKS
KINROSS          N/A     68  54  60 SW5       30.12R
MACKINAC ISLAN   N/A     64  50  60 S3        30.13S
NEWBERRY         N/A     68  55  62 S8        30.11S
S. S. MARIE      N/A     66  53  63 S5        30.10F
$$
MIZ004>006-011>014-085-272200-
CENTRAL UPPER MICHIGAN

CITY           SKY/WX    TMP DP  RH WIND       PRES   REMARKS
MANISTIQUE       N/A     66  57  73 S8        30.10F
ESCANABA         N/A     66  59  77 SE12      30.09S
MENOMINEE        N/A     72  57  60 S7        30.08F
SAWYER-GWINN   SUNNY     73  48  40 SW9       30.08F
$$
MIZ001>003-009>011-084-272200-
WESTERN UPPER MICHIGAN

CITY           SKY/WX    TMP DP  RH WIND       PRES   REMARKS
IRON MOUNTAIN    N/A     74  54  49 S12       30.07F
HOUGHTON         N/A     69  52  54 E7        30.05F
COPPER HARBOR    N/A     67  50  54 VRB3      30.05F
IRONWOOD         N/A     73  52  46 SW6       30.01F
$$

ABBREVIATIONS USED IN REMARKS
   TC - TEMPERATURE IN CELSIUS
  WCI - WIND CHILL INDEX
   HX - HEAT INDEX
  VSB - VISIBILITY




USA.gov is the U.S. government's official web portal to all federal, state and local government web resources and services.